Regional Weather Roundup
Issued by NWS

Home | Current Version | Previous Version | Graphics & Text | Print | Product List | Glossary On
Versions: 1 2 3 4 5 6 7 8 9 10 11 12 13 14 15 16 17 18 19 20 21 22 23 24 25 26 27 28 29 30 31 32 33 34 35 36 37 38 39 40 41 42 43 44 45 46 47 48 49 50
000
ASUS43 KDMX 191901
RWRIA

WEATHER ROUNDUP FOR IOWA
NATIONAL WEATHER SERVICE DES MOINES IA
100 PM CST MON FEB 19 2018

NOTE: "FAIR" INDICATES FEW OR NO CLOUDS BELOW 12,000 FEET WITH NO
SIGNIFICANT WEATHER AND/OR OBSTRUCTIONS TO VISIBILITY.

* - THESE STATIONS ARE NOT NWS STATIONS...THUS NOT UNDER NWS
QUALITY CONTROL.  THEY ALSO DO NOT REPORT WEATHER SUCH
AS PRECIPITATION OR FOG.

IAZ001>003-012>014-020>022-031>034-043>046-192000-
   NORTHWEST IOWA

CITY           SKY/WX    TMP DP  RH WIND       PRES   REMARKS
CARROLL *      PTSUNNY   27  25  93 N25       29.75S FOG     WCI  11
CHEROKEE *     CLOUDY    20  19  96 N12       29.81F WCI   8
DENISON *      MIX PCPN  23  23 100 N18       29.79F WCI   9
LE MARS *      CLOUDY    19  18  93 MISG      29.84F FOG
ORANGE CITY *  CLOUDY    19  18  93 N13G18    29.81F FOG     WCI   7
SHELDON *      LGT SNOW  18  16  93 MISG      29.80F
SIOUX CITY     MIX PCPN  20  18  92 N16       29.84F FOG     WCI   6
SPENCER        MIX PCPN  20  16  84 MISG      29.78F VSB 1
STORM LAKE *   SUNNY     21  21 100 MISG      29.77R FOG
$$

IAZ055>058-069>071-079>083-090>094-192000-
   SOUTHWEST IOWA

CITY           SKY/WX    TMP DP  RH WIND       PRES   REMARKS
ATLANTIC *     CLOUDY    27  27 100 N14G20    29.77R WCI  15
AUDUBON *      CLOUDY    27  25  93 NW7       29.76R FOG     WCI  19
CLARINDA *     CLOUDY    30  32 100 NW13      29.78F FOG     WCI  20
COUNCIL BLFS * CLOUDY    25  25 100 NW14G20   29.79S FOG     WCI  13
CRESTON *      CLOUDY    32  32 100 NW12G18   29.73S FOG     WCI  23
HARLAN  *      CLOUDY    27  27 100 N14       29.81S WCI  15
LAMONI         CLOUDY    37  35  92 NW15      29.71R FOG     WCI  28
RED OAK *      CLOUDY    28  28 100 NW10G17   29.79S WCI  19
SHENANDOAH *   CLOUDY    28  28 100 NW12      29.80F WCI  18
$$

IAZ047>049-059>061-072>074-084-192000-
   CENTRAL IOWA

CITY           SKY/WX    TMP DP  RH WIND       PRES   REMARKS
AMES           CLOUDY    34  33  96 N10       29.68F FOG     WCI  26
ANKENY *       CLOUDY    36  34  93 NW12      29.70R FOG     WCI  27
BOONE *        FOG       32  32 100 MISG      29.68S VSB 3/4
CHARITON *     FOG       36  36 100 NW12      29.68R VSB 1/2 WCI  27
DES MOINES     CLOUDY    36  34  92 NW12      29.69S FOG     WCI  28
GRINNELL*      FOG       44  43  97 E3        29.64F VSB 1/4
KNOXVILLE *    LGT RAIN  37  37 100 NW16      29.65R VSB 1/2 WCI  28
MARSHALLTOWN   CLOUDY    38  38 100 N7        29.64F FOG     WCI  33
NEWTON *       FOG       41  41 100 NW7       29.66R VSB 3/4
PELLA *        FOG       42  41  98 W10       29.68R VSB 1/4
PERRY *        CLOUDY    32  32 100 NW12      29.72S FOG     WCI  23
$$

IAZ004>006-015-016-023>025-035-036-192000-
   NORTH CENTRAL IOWA

CITY           SKY/WX    TMP DP  RH WIND       PRES   REMARKS
CLARION *      CLOUDY    32  32 100 N13       29.70R FOG     WCI  22
ESTHERVILLE    CLOUDY    19  17  92 MISG      29.77F FOG
FORT DODGE *   CLOUDY    29  27  92 N10       29.73S FOG     WCI  20
MASON CITY     CLOUDY    32  30  92 NE15      29.69F FOG     WCI  22
FOREST CITY *  CLOUDY    32  32 100 N9        29.71F FOG     WCI  24
WEBSTER CITY * CLOUDY    32  32 100 N12       29.68S FOG     WCI  23
IOWA FALLS *   FOG       34  33  97 N12G18    29.66F VSB 1   WCI  26
$$

IAZ007>011-017>019-026>030-037>042-050>054-066-192000-
   NORTHEAST IOWA

CITY           SKY/WX    TMP DP  RH WIND       PRES   REMARKS
CEDAR RAPIDS   FOG       46  45  96 NE3       29.64F VSB<1/4
CHARLES CITY * CLOUDY    34  34 100 NE16      29.68F FOG     WCI  23
CLINTON *      FOG       46  46 100 SE10      29.68  VSB 1/4
DECORAH *      LGT RAIN  36  36 100 E9        29.70S VSB 1/2 WCI  29
DUBUQUE        FOG       37  36  96 NE8       29.68F VSB<1/4 WCI  31
MONTICELLO *   FOG       41  41 100 CALM      29.67S VSB 1/2
OELWEIN *      LGT RAIN  36  36 100 NE12      29.66F WCI  27
WATERLOO       LGT RAIN  36  36 100 NE6       29.66F FOG     WCI  31
$$

IAZ064-065-067-068-078-192000-
   EAST CENTRAL IOWA

CITY           SKY/WX    TMP DP  RH WIND       PRES   REMARKS
DAVENPORT      FAIR      59  54  83 S20       29.69S
IOWA CITY      PTSUNNY   55  52  89 SE6       29.66F
MT. PLEASANT * CLOUDY    63  59  88 S20G28    29.67F
MUSCATINE *    CLOUDY    57  55  94 S13       29.67F
QUAD CITIES    FAIR      61  56  83 S16G28    29.66F
$$

IAZ062-063-075>077-085>089-095>099-192000-
   SOUTHEAST IOWA

CITY           SKY/WX    TMP DP  RH WIND       PRES   REMARKS
BURLINGTON     CLOUDY    62  56  80 S18G25    29.69F
FAIRFIELD *    CLOUDY    63  59  88 S15       29.64S
FORT MADISON * CLOUDY    63  57  82 S10G18    29.70S
KEOKUK *       CLOUDY    64  57  77 S21G30    29.69F
OSKALOOSA *    LGT RAIN  50  49  98 NW7       29.63S VSB 3/4
OTTUMWA        CLOUDY    65  59  81 SW14      29.62F
WASHINGTON *   CLOUDY    63  63 100 SW16      29.66S
$$

ABBREVIATIONS USED IN REMARKS
   TC - TEMPERATURES IN CELSIUS
  WCI - WIND CHILL INDEX
   HX - HEAT INDEX
  VSB - VISIBILITY
$$





USA.gov is the U.S. government's official web portal to all federal, state and local government web resources and services.